Погода в Талси

Латвия     57°14′40″N   22°35′11″E
темп.,
°C
ветер,
м/с
пор.,
м/с
влажн.,
%
обл.,
%
осадки,
мм/ч
давл.,
гПа
погр.,
м
21 июня, пн
пн2100:00+21юв37831 0.0 1013144
03:00+19ююв311950 0.4 1013223
06:00+20ююв311870 0.1 1012290
09:00+26ю48675 0.1 1012544
12:00+30ю59425 0.0 10121705
15:00+32ю69375 0.0 10122202
18:00+31ююв574142 0.0 10121855
21:00+26ююв396621 0.0 1012439
22 июня, вт
вт2200:00+21юв27825 0.0 1012137
03:00+21юв311870 0.0 1011264
06:00+20юв39880 0.0 1010225
09:00+25ююв35660 0.0 1010509
12:00+27ю46651 1.3 10101237
15:00+30ююв3547100 1.3 10101946
18:00+26с126879 1.4 1010396
21:00+21зсз259412 5.1 1012221
23 июня, ср
ср2300:00+18з239731 0.0 101364
03:00+16з1296100 0.4 101322
06:00+17зюз119487 0.0 101341
09:00+20з128898 0.5 1014210
12:00+25зюз3367100 0.1 1015890
15:00+24з2164100 0.2 1015783
18:00+22з2361100 0.1 1016436
21:00+20з357256 0.1 1016247
24 июня, чт
чт2400:00+15з259925 0.0 1017168
03:00+14сз3591100 0.0 1018402
06:00+15сз3582100 0.0 1018513
09:00+18ссз34670 0.0 1019628
12:00+23ссз33490 0.0 10191229
15:00+24ссз334358 0.0 10181597
18:00+23ссз32476 0.0 10181186
21:00+18с35681 0.0 1018229
25 июня, пт
пт2500:00+13ссв23810 0.0 101850
03:00+12св118778 0.0 101711
06:00+14св24925 0.0 101699
09:00+20св35635 0.0 1014501
12:00+25всв454582 0.0 1013821
15:00+26всв455232 0.1 1012910
18:00+27всв45548 0.0 1009806
21:00+19в3798100 4.1 1009245